Michael & Company Precision Metal Fabricators Online Auction

Lot #CE-214: Millermatic 252 Mig Welder

Bidding is closed.
High Bid:$1,650.00
NA
Bidding Ended: Thu, Jun 11  10:57:43 am PT
High Bidder: lenlewisjr
Bid Increment: $50.00
Starting Bid: $5.00
Item Location: 12405 E Brandt Road, Lockeford, CA 95237
Item has been viewed 313 times.

Millermatic 252 Mig Welder

  • Make: Miller
  • Model: Millermatic 252
  • Serial No: MC370893N
  • Stock No: 907322

Input:

  • Volts: 230/460/575
  • Amperes: 46/23/18
  • KW: 7.5
  • Phase: 1
  • Hertz: 60

Output:

  • Amps: 200
  • Voltage: 28
  • Duty Cycle: 60%
  • Max OCV: 38
  • Nema Class I (60)
Bid Date Bid Amount Bidder
Jun 11, 2020 - 10:55:43 AM $1,650.00 ilenlewisjr
Jun 11, 2020 - 10:55:43 AM $1,600.00 it2ghia
Jun 11, 2020 - 10:54:51 AM $1,550.25 it2ghia
Jun 11, 2020 - 10:54:51 AM $1,500.25 ilenlewisjr
Jun 11, 2020 - 10:50:52 AM $1,485.50 ilenlewisjr
Jun 11, 2020 - 10:50:52 AM $1,435.50 ijohn
Jun 11, 2020 - 10:50:21 AM $1,340.99 ijohn
Jun 11, 2020 - 10:50:21 AM $1,290.99 iTuan.ng
Jun 11, 2020 - 10:48:58 AM $979.99 ijohn
Jun 11, 2020 - 10:48:58 AM $969.99 iMorrise55
Jun 11, 2020 - 10:48:19 AM $959.99 ijohn
Jun 11, 2020 - 10:48:19 AM $949.99 iMorrise55
Jun 11, 2020 - 10:48:16 AM $939.99 ijohn
Jun 11, 2020 - 10:48:16 AM $929.99 iMorrise55
Jun 11, 2020 - 10:19:13 AM $919.99 ijohn
Jun 11, 2020 - 10:19:13 AM $909.99 iTuan.ng
Jun 11, 2020 - 10:10:39 AM $890.00 ijohn
Jun 11, 2020 - 10:10:39 AM $880.00 iTuan.ng
Jun 11, 2020 - 6:43:41 AM $870.00 ijohn
Jun 11, 2020 - 6:43:41 AM $860.00 iMcmcrzr
Jun 11, 2020 - 6:42:11 AM $840.00 ijohn
Jun 11, 2020 - 6:42:11 AM $830.00 iMcmcrzr
Jun 11, 2020 - 6:39:41 AM $810.00 ijohn
Jun 11, 2020 - 6:39:41 AM $800.00 iMcmcrzr
Jun 11, 2020 - 6:36:58 AM $760.00 ijohn
Jun 11, 2020 - 6:36:58 AM $750.00 iMcmcrzr
Jun 10, 2020 - 10:58:45 PM $730.00 ijohn
Jun 10, 2020 - 10:58:45 PM $720.00 iBroadyboy7
Jun 9, 2020 - 5:49:29 PM $710.00 ijohn
Jun 9, 2020 - 5:49:29 PM $700.00 igstackspitscatering
Jun 9, 2020 - 1:46:22 PM $435.00 ijohn
Jun 9, 2020 - 1:45:58 PM $425.00 iliamlrb
Jun 9, 2020 - 1:45:58 PM $420.00 ijohn
Jun 9, 2020 - 1:40:49 PM $410.00 iliamlrb
Jun 9, 2020 - 1:40:49 PM $400.00 iBpriddin
Jun 9, 2020 - 1:40:42 PM $35.00 iliamlrb
Jun 9, 2020 - 1:40:42 PM $30.00 iClayton.webster96
Jun 9, 2020 - 1:39:42 PM $25.00 iliamlrb
Jun 9, 2020 - 1:39:42 PM $20.00 iClayton.webster96
Jun 9, 2020 - 11:04:21 AM $15.00 iliamlrb
Jun 9, 2020 - 11:04:21 AM $10.00 iSuse
Jun 9, 2020 - 10:27:37 AM $5.00 iliamlrb
Click on any picture to see a larger image.